This is the latest recevied weather packets stored in our database for station/object KC4LZN. If no packets are shown the sender has not sent any weather packets the latest 10 day(s).
| Time | Temp. | Humidity | Pressure | Rain* | Wind** | Luminosity | Snow |
|---|---|---|---|---|---|---|---|
| 1777905021 | 24.44° C | 46% | 1018.8 hPa | 0 mm | - | 642 W/m² | - |
| 1777904718 | 23.89° C | 47% | 1018.8 hPa | 0 mm | - | 629 W/m² | - |
| 1777904415 | 23.89° C | 48% | 1018.8 hPa | 0 mm | - | 583 W/m² | - |
| 1777904111 | 23.89° C | 48% | 1018.7 hPa | 0 mm | - | 574 W/m² | - |
| 1777903808 | 23.89° C | 48% | 1018.8 hPa | 0 mm | - | 583 W/m² | - |
| 1777903505 | 23.33° C | 49% | 1018.6 hPa | 0 mm | - | 509 W/m² | - |
| 1777903201 | 23.33° C | 50% | 1018.5 hPa | 0 mm | - | 366 W/m² | - |
| 1777902897 | 23.33° C | 51% | 1018.3 hPa | 0 mm | - | 537 W/m² | - |
| 1777902594 | 23.33° C | 51% | 1018.6 hPa | 0 mm | - | 520 W/m² | - |
| 1777902292 | 23.33° C | 54% | 1018.3 hPa | 0 mm | - | 503 W/m² | - |
| 1777901989 | 23.33° C | 59% | 1018.3 hPa | 0 mm | - | 484 W/m² | - |
| 1777901687 | 23.33° C | 60% | 1018.3 hPa | 0 mm | - | 465 W/m² | - |
| 1777901384 | 22.78° C | 63% | 1018.4 hPa | 0 mm | - | 448 W/m² | - |
| 1777901082 | 22.78° C | 63% | 1018.1 hPa | 0 mm | - | 428 W/m² | - |
| 1777900779 | 22.78° C | 65% | 1018.1 hPa | 0 mm | - | 411 W/m² | - |
| 1777900476 | 22.78° C | 65% | 1018.2 hPa | 0 mm | - | 393 W/m² | - |
| 1777900173 | 22.78° C | 67% | 1018.3 hPa | 0 mm | - | 374 W/m² | - |
| 1777899869 | 22.78° C | 67% | 1018.2 hPa | 0 mm | - | 355 W/m² | - |
| 1777899566 | 21.67° C | 69% | 1018.2 hPa | 0 mm | - | 336 W/m² | - |
| 1777899264 | 22.22° C | 69% | 1018.2 hPa | 0 mm | - | 318 W/m² | - |
| 1777898961 | 21.67° C | 69% | 1018.2 hPa | 0 mm | - | 286 W/m² | - |
| 1777898658 | 21.67° C | 70% | 1018 hPa | 0 mm | - | 264 W/m² | - |
| 1777898355 | 21.67° C | 69% | 1018.3 hPa | 0 mm | - | 251 W/m² | - |
| 1777898053 | 21.11° C | 70% | 1018.1 hPa | 0 mm | - | 244 W/m² | - |
| 1777897749 | 21.11° C | 71% | 1018 hPa | 0 mm | - | 225 W/m² | - |
* Rain latest hour (hover to see other rain measurements)
** Current wind speed in m/s (hover to see current wind gust speed)